Allentown, PA

3:03 PM EST on December 05, 2019 (GMT -0500)
Allentown

Weather History for KXLL - November, 2019

Change the Weather History Date:

Saturday, November 16, 2019

  Actual Average (WUND) Record (WUND)
Temperature  
Mean Temperature 34 °F -  
Max Temperature 41 °F - - (-1)
Min Temperature 28 °F - - (-1)
Degree Days  
Heating Degree Days 30    
Moisture  
Dew Point 12 °F    
Average Humidity 43    
Maximum Humidity 70    
Minimum Humidity 21    
Precipitation  
Precipitation 0.00 in - - ()
Sea Level Pressure  
Sea Level Pressure 30.40 in    
Wind  
Wind Speed 10 mph ()    
Max Wind Speed 21 mph    
Max Gust Speed 31 mph    
Visibility 10.0 miles    
Events      
Averages and records for this station are not official NWS values.
T = Trace of Precipitation, MM = Missing Value Source: Averaged Metar Reports

Daily Weather History Graph

Daily Weather History Graph

Search for Another Location

Airport or City:

Astronomy

Nov. 16, 2019 Rise Set
Actual Time 6:49 AM EST 4:43 PM EST
Civil Twilight 6:19 AM EST 5:12 PM EST
Nautical Twilight 5:46 AM EST 5:46 PM EST
Astronomical Twilight 5:14 AM EST 6:18 PM EST
Moon 8:13 PM EST (11/16) 10:41 AM EST (11/16)
Length of Visible Light 10h 53m
Length of Day
9h 54m
Waning Gibbous, 82% of the Moon is Illuminated
Nov 16
Waning Gibbous
Nov 19
Last Quarter
Nov 26
New
Dec 4
First Quarter
Dec 12
Full

Hourly Weather History & Observations

Time (EST) Temp. Windchill Dew Point Humidity Pressure Visibility Wind Dir Wind Speed Gust Speed Precip Events Conditions
12:15 AM 37.4 °F 29.8 °F 26.6 °F 65% 30.27 in 10.0 mi North 11.5 mph 17.3 mph N/A   Clear
12:35 AM 37.4 °F 30.8 °F 26.6 °F 65% 30.27 in 10.0 mi North 9.2 mph - N/A   Clear
12:55 AM 37.4 °F 32.8 °F 26.6 °F 65% 30.27 in 10.0 mi North 5.8 mph - N/A   Clear
1:15 AM 35.6 °F 29.9 °F 26.6 °F 70% 30.27 in 10.0 mi North 6.9 mph - N/A   Clear
1:35 AM 35.6 °F 28.6 °F 26.6 °F 70% 30.28 in 10.0 mi North 9.2 mph - N/A   Clear
1:55 AM 35.6 °F 30.7 °F 26.6 °F 70% 30.28 in 10.0 mi North 5.8 mph - N/A   Clear
2:15 AM 35.6 °F 29.2 °F 26.6 °F 70% 30.28 in 10.0 mi NNW 8.1 mph - N/A   Clear
2:35 AM 35.6 °F 29.9 °F 26.6 °F 70% 30.28 in 10.0 mi North 6.9 mph - N/A   Clear
2:55 AM 35.6 °F 29.2 °F 26.6 °F 70% 30.28 in 10.0 mi North 8.1 mph - N/A   Clear
3:15 AM 35.6 °F 29.9 °F 26.6 °F 70% 30.29 in 10.0 mi North 6.9 mph - N/A   Clear
3:35 AM 35.6 °F 29.9 °F 26.6 °F 70% 30.29 in 10.0 mi North 6.9 mph 10.4 mph N/A   Clear
3:55 AM 35.6 °F 28.0 °F 26.6 °F 70% 30.29 in 10.0 mi North 10.4 mph 16.1 mph N/A   Mostly Cloudy
4:15 AM 35.6 °F 27.5 °F 26.6 °F 70% 30.30 in 10.0 mi North 11.5 mph 16.1 mph N/A   Mostly Cloudy
4:35 AM 35.6 °F 29.2 °F 26.6 °F 70% 30.31 in 10.0 mi North 8.1 mph - N/A   Overcast
4:55 AM 35.6 °F 27.5 °F 24.8 °F 65% 30.32 in 10.0 mi NNE 11.5 mph 19.6 mph N/A   Scattered Clouds
5:15 AM 35.6 °F 27.1 °F 23.0 °F 60% 30.34 in 10.0 mi NNE 12.7 mph - N/A   Scattered Clouds
5:35 AM 33.8 °F 24.3 °F 21.2 °F 60% 30.35 in 10.0 mi NE 13.8 mph - N/A   Clear
5:55 AM 33.8 °F 25.8 °F 21.2 °F 60% 30.37 in 10.0 mi NNE 10.4 mph - N/A   Clear
6:15 AM 33.8 °F 26.4 °F 21.2 °F 60% 30.38 in 10.0 mi North 9.2 mph 16.1 mph N/A   Clear
6:35 AM 33.8 °F 27.0 °F 21.2 °F 60% 30.39 in 10.0 mi North 8.1 mph - N/A   Clear
6:55 AM 32.0 °F 23.6 °F 19.4 °F 60% 30.41 in 10.0 mi NNE 10.4 mph - N/A   Clear
7:15 AM 32.0 °F 24.8 °F 19.4 °F 60% 30.42 in 10.0 mi NNE 8.1 mph - N/A   Clear
7:35 AM 32.0 °F 24.2 °F 17.6 °F 55% 30.43 in 10.0 mi NNE 9.2 mph - N/A   Clear
7:55 AM 33.8 °F 25.3 °F 17.6 °F 52% 30.44 in 10.0 mi NNE 11.5 mph 17.3 mph N/A   Clear
8:15 AM 33.8 °F 23.2 °F 15.8 °F 48% 30.44 in 10.0 mi NE 17.3 mph 20.7 mph N/A   Clear
8:35 AM 33.8 °F 22.8 °F 10.4 °F 38% 30.45 in 10.0 mi NE 18.4 mph 21.9 mph N/A   Clear
8:55 AM 33.8 °F 22.5 °F 6.8 °F 32% 30.46 in 10.0 mi NE 19.6 mph 31.1 mph N/A   Clear
9:35 AM 33.8 °F 22.8 °F 3.2 °F 28% 30.46 in 10.0 mi NE 18.4 mph 26.5 mph N/A   Clear
9:55 AM 35.6 °F 25.2 °F 5.0 °F 28% 30.46 in 10.0 mi NE 18.4 mph 24.2 mph N/A   Clear
10:15 AM 35.6 °F 26.6 °F 5.0 °F 28% 30.46 in 10.0 mi NNE 13.8 mph 20.7 mph N/A   Clear
10:35 AM 35.6 °F 25.5 °F 5.0 °F 28% 30.47 in 10.0 mi NE 17.3 mph 24.2 mph N/A   Clear
10:55 AM 35.6 °F 24.5 °F 5.0 °F 28% 30.46 in 10.0 mi NNE 20.7 mph - N/A   Clear
11:15 AM 35.6 °F 26.2 °F 5.0 °F 28% 30.46 in 10.0 mi NNE 15.0 mph 19.6 mph N/A   Clear
11:35 AM 37.4 °F 28.9 °F 5.0 °F 26% 30.46 in 10.0 mi NE 13.8 mph 18.4 mph N/A   Clear
11:55 AM 37.4 °F 28.9 °F 5.0 °F 26% 30.45 in 10.0 mi NE 13.8 mph 23.0 mph N/A   Clear
12:15 PM 37.4 °F 29.3 °F 5.0 °F 26% 30.44 in 10.0 mi NE 12.7 mph 19.6 mph N/A   Clear
12:35 PM 37.4 °F 28.2 °F 5.0 °F 26% 30.43 in 10.0 mi NNE 16.1 mph - N/A   Clear
12:55 PM 39.2 °F 31.2 °F 5.0 °F 24% 30.43 in 10.0 mi NNE 13.8 mph 17.3 mph N/A   Clear
1:15 PM 39.2 °F 32.5 °F 5.0 °F 24% 30.42 in 10.0 mi NE 10.4 mph - N/A   Clear
1:35 PM 41.0 °F 35.2 °F 5.0 °F 23% 30.41 in 10.0 mi NE 9.2 mph - N/A   Clear
1:55 PM 39.2 °F 32.0 °F 3.2 °F 22% 30.41 in 10.0 mi NE 11.5 mph 17.3 mph N/A   Clear
2:15 PM 41.0 °F 34.3 °F 3.2 °F 21% 30.40 in 10.0 mi NE 11.5 mph 18.4 mph N/A   Clear
2:35 PM 41.0 °F 35.8 °F 5.0 °F 23% 30.41 in 10.0 mi NE 8.1 mph 19.6 mph N/A   Clear
3:15 PM 39.2 °F 31.6 °F 3.2 °F 22% 30.42 in 10.0 mi NNE 12.7 mph 18.4 mph N/A   Clear
3:55 PM 37.4 °F 28.9 °F 3.2 °F 24% 30.42 in 10.0 mi NE 13.8 mph 18.4 mph N/A   Clear
4:15 PM 37.4 °F 30.8 °F 3.2 °F 24% 30.42 in 10.0 mi NNE 9.2 mph - N/A   Clear
4:35 PM 35.6 °F 27.5 °F 1.4 °F 24% 30.42 in 10.0 mi NE 11.5 mph 16.1 mph N/A   Clear
4:55 PM 35.6 °F 27.5 °F 1.4 °F 24% 30.43 in 10.0 mi NNE 11.5 mph - N/A   Clear
5:15 PM 35.6 °F 29.2 °F 1.4 °F 24% 30.43 in 10.0 mi NE 8.1 mph - N/A   Clear
5:35 PM 33.8 °F 27.0 °F 1.4 °F 25% 30.43 in 10.0 mi NE 8.1 mph - N/A   Clear
5:55 PM 33.8 °F 28.6 °F 1.4 °F 25% 30.44 in 10.0 mi NE 5.8 mph - N/A   Clear
6:15 PM 33.8 °F 28.6 °F 3.2 °F 28% 30.44 in 10.0 mi NE 5.8 mph - N/A   Clear
6:35 PM 32.0 °F 25.6 °F 3.2 °F 30% 30.45 in 10.0 mi NE 6.9 mph - N/A   Clear
6:55 PM 32.0 °F 26.4 °F 5.0 °F 32% 30.46 in 10.0 mi NE 5.8 mph - N/A   Clear
7:15 PM 32.0 °F 25.6 °F 5.0 °F 32% 30.46 in 10.0 mi NE 6.9 mph - N/A   Clear
7:35 PM 32.0 °F 25.6 °F 5.0 °F 32% 30.46 in 10.0 mi NE 6.9 mph - N/A   Clear
7:55 PM 32.0 °F 24.8 °F 6.8 °F 35% 30.46 in 10.0 mi NE 8.1 mph - N/A   Clear
8:15 PM 32.0 °F 24.2 °F 6.8 °F 35% 30.46 in 10.0 mi NE 9.2 mph - N/A   Clear
8:35 PM 32.0 °F 24.2 °F 6.8 °F 35% 30.45 in 10.0 mi NE 9.2 mph - N/A   Clear
8:55 PM 32.0 °F 24.2 °F 8.6 °F 38% 30.44 in 10.0 mi NE 9.2 mph - N/A   Clear
9:15 PM 30.2 °F 20.8 °F 8.6 °F 40% 30.44 in 10.0 mi NE 11.5 mph - N/A   Clear
9:35 PM 30.2 °F 20.8 °F 8.6 °F 40% 30.43 in 10.0 mi NE 11.5 mph - N/A   Clear
9:55 PM 30.2 °F 21.9 °F 8.6 °F 40% 30.42 in 10.0 mi NE 9.2 mph - N/A   Clear
10:15 PM 30.2 °F 20.2 °F 8.6 °F 40% 30.42 in 10.0 mi NE 12.7 mph - N/A   Clear
10:35 PM 30.2 °F 21.9 °F 8.6 °F 40% 30.43 in 10.0 mi NE 9.2 mph - N/A   Clear
10:55 PM 30.2 °F 21.3 °F 8.6 °F 40% 30.43 in 10.0 mi NE 10.4 mph - N/A   Clear
11:15 PM 30.2 °F 24.3 °F 8.6 °F 40% 30.44 in 10.0 mi NNE 5.8 mph - N/A   Clear
11:35 PM 28.4 °F 20.4 °F 8.6 °F 43% 30.44 in 10.0 mi NE 8.1 mph - N/A   Clear
11:55 PM 28.4 °F 22.2 °F 8.6 °F 43% 30.44 in 10.0 mi NE 5.8 mph - N/A   Clear